Flag for Italy Weather past 2 weeks in Sassari, Italy

Now
63 °F

Passing clouds.


Feels Like: 63 °F
Forecast: 44 / 59 °F
Wind: 12 mph from Northeast

Location: Alghero Airport

Current Time: Dec 18, 2014 at 2:35:25 PM

Latest Report: Dec 18, 2014 at 1:50 PM


Visibility: N/A

Pressure: 30.09 "Hg

Humidity: 73%

Dew point: 54 °F

Location of SassariLocation

Historic Weather in Sassari — Graph

°F

Sassari temperature yesterday

Maximum temperature yesterday: 61 °F (at 1:20 PM)
Minimum temperature yesterday: 43 °F (at 4:50 AM)
Average temperature yesterday: 53 °F

Past Weeks' High & Low Weather Summary

 TemperatureHumidityPressure
High64 °F (Dec 4, 12:20 PM)100% (Dec 3, 11:20 PM)30.24 "Hg (Dec 3, 11:20 PM)
Low39 °F (Dec 11, 1:50 AM)51% (Dec 10, 12:20 PM)29.74 "Hg (Dec 3, 12:20 PM)
Average54 °F81%30.00 "Hg
* Reported Dec 3 12:20 PM — Dec 18 12:50 PM, Sassari, Weather by CustomWeather, © 2014

Note: Actual official high and low records may vary slightly from our data, if they occured in-between our weather recording intervals... More about our weather records

Advertising

Sassari weather history for previous 24 hours

 ConditionsComfort  
Time TempWeatherWind HumidityBarometerVisibility
12:50 PM
Dec 18
63 °FPassing clouds.7 mph73%30.09 "HgN/A
12:20 PM63 °FPassing clouds.6 mph77%30.09 "HgN/A
11:50 AM61 °FPassing clouds.5 mph77%30.09 "HgN/A
11:20 AM61 °FPassing clouds.3 mph77%30.09 "HgN/A
10:50 AM59 °FPassing clouds.7 mph82%30.09 "HgN/A
10:20 AM57 °FPassing clouds.3 mph88%30.07 "HgN/A
9:50 AM55 °FScattered clouds.5 mph94%30.07 "HgN/A
9:20 AM54 °FPassing clouds.5 mph100%30.07 "HgN/A
8:50 AM52 °FPassing clouds.3 mph100%30.04 "HgN/A
8:20 AM52 °FPassing clouds.2 mph100%30.04 "HgN/A
7:50 AM52 °FPassing clouds.No wind100%30.01 "HgN/A
7:20 AM54 °FPassing clouds.No wind94%30.01 "HgN/A
6:50 AM54 °FPassing clouds.No wind94%29.98 "HgN/A
6:20 AM54 °FPassing clouds.No wind94%29.98 "HgN/A
5:50 AM54 °FPassing clouds.1 mph94%29.98 "HgN/A
5:20 AM55 °FPassing clouds.2 mph88%29.95 "HgN/A
4:20 AM55 °FPassing clouds.1 mph88%29.95 "HgN/A
3:50 AM55 °FPassing clouds.5 mph88%29.95 "HgN/A
3:20 AM55 °FLight rain. Passing clouds.8 mph88%29.98 "Hg6 mi
2:50 AM55 °FLight rain. Passing clouds.5 mph94%29.98 "Hg6 mi
2:20 AM55 °FLight rain. Passing clouds.8 mph94%29.98 "Hg6 mi
1:50 AM55 °FPassing clouds.8 mph94%29.98 "HgN/A
1:20 AM55 °FPassing clouds.6 mph94%29.98 "Hg6 mi
12:50 AM55 °FPassing clouds.3 mph94%29.98 "Hg6 mi
12:20 AM55 °FPassing clouds.3 mph94%29.98 "Hg6 mi
11:50 PM
Dec 17
55 °FPassing clouds.3 mph94%30.01 "Hg6 mi
11:20 PM55 °FPassing clouds.5 mph94%30.01 "Hg4 mi
10:50 PM55 °FPassing clouds.6 mph94%30.01 "Hg4 mi
10:20 PM55 °FPassing clouds.6 mph94%30.01 "Hg4 mi
9:50 PM55 °FPassing clouds.5 mph88%30.01 "HgN/A
9:20 PM57 °FPassing clouds.2 mph72%30.04 "HgN/A
8:50 PM57 °FPassing clouds.5 mph72%30.04 "HgN/A
8:20 PM57 °FPassing clouds.3 mph72%30.01 "HgN/A
7:50 PM57 °FPassing clouds.3 mph72%30.01 "HgN/A
7:20 PM57 °FPassing clouds.3 mph72%30.01 "HgN/A
6:50 PM57 °FPassing clouds.5 mph77%30.01 "HgN/A
6:20 PM55 °FPassing clouds.6 mph82%29.98 "HgN/A
5:50 PM57 °FPassing clouds.3 mph82%29.98 "HgN/A
5:20 PM57 °FPassing clouds.2 mph82%29.98 "HgN/A
4:50 PM57 °FPassing clouds.3 mph82%29.98 "HgN/A
4:20 PM59 °FScattered clouds.6 mph77%29.98 "HgN/A
3:50 PM61 °FPassing clouds.6 mph72%29.98 "HgN/A
3:20 PM61 °FPassing clouds.6 mph68%29.98 "HgN/A
2:50 PM59 °FPassing clouds.8 mph77%29.95 "HgN/A
2:20 PM61 °FScattered clouds.7 mph72%29.95 "HgN/A
Weather by CustomWeather, © 2014

See weather overviewHow to use our weather pages